Погода в Таллине

Эстония     59°26′14″N   24°44′42″E
темп.,
°C
ветер,
м/с
пор.,
м/с
влажн.,
%
обл.,
%
осадки,
мм/ч
давл.,
гПа
погр.,
м
21 июня, пн
пн2100:00+21ююв59752 0.0 1013156
03:00+19ю58810 0.0 101498
06:00+19ююв48840 0.0 1013136
09:00+23ю57720 0.1 1013247
12:00+26ю575643 0.4 1013734
15:00+26юз57519 0.4 1013967
18:00+24зюз156136 0.0 1013861
21:00+19в578654 0.0 101375
22 июня, вт
вт2200:00+20ююв458183 0.0 101354
03:00+19ююв458979 0.5 101351
06:00+19ююв488890 0.0 1012110
09:00+22ююв477384 0.0 1012209
12:00+26ююв455564 0.0 1011688
15:00+27ююв465086 0.0 10101171
18:00+20ссз118629 4.8 101180
21:00+18ссв11925 6.5 101226
23 июня, ср
ср2300:00+18юз12925 0.2 101211
03:00+18ю239613 1.2 101327
06:00+17зюз349945 0.0 101468
09:00+18з349062 0.6 1015218
12:00+19зсз558264 0.1 1016311
15:00+18зсз458478 0.1 1017196
18:00+16з4594100 0.8 1017165
21:00+16сз1194100 3.4 101613
24 июня, чт
чт2400:00+15з349377 0.1 101782
03:00+15зюз459315 0.1 101776
06:00+15зюз359197 0.0 101768
09:00+17зюз3482100 0.0 1017160
12:00+18зсз3382100 0.0 1017265
15:00+18зсз338034 0.0 1017365
18:00+17зсз558333 0.0 1017235
21:00+16з35855 0.0 1017108
25 июня, пт
пт2500:00+15ююз22885 0.0 101817
03:00+14юз12870 0.0 101711
06:00+15юв11850 0.0 101720
09:00+18всв22770 0.0 1017231
12:00+18св548454 0.0 1016256
15:00+18св678124 0.1 1015238
18:00+18всв69775 0.0 1014204
21:00+17св6118051 0.0 1012158